sat.trackr.live / text

‹ back to catalog

STARLINK-3306

NORAD 50163 · 2021-125H

PAYLOAD ACTIVE UNKNOWN

§ Identity

Operator
Country
US
Launch date
2021-12-18
Launch site
AFWTR
Launch vehicle
Mass (kg)
RCS (m²)

Purposes: comms

External: N2YO · Heavens-Above · Gunter

§ Orbital elements

Epoch: 2026-05-25T06:00:02.000160Z

Period
94.95 min
Inclination
53.2167°
Eccentricity
0.0001444
Mean motion
15.16576806 rev/d
Perigee alt
515.2 km
Apogee alt
517.2 km
Semi-major
6,894.3 km
B*
3.9335e-3
RAAN
255.0489°
Arg perigee
93.0298°
Mean anomaly
30.1559°
Rev number
579

§ Raw data

STARLINK-33061 50163U 21125H   26145.25002315  .00078253  00000+0  39335-2 0  99912 50163  53.2167 255.0489 0001444  93.0298  30.1559 15.16576806  5797

JSON: /api/v1/satellites/50163 · /tle

For live sub-satellite position, see the globe view (requires WebGL).

§ Visibility from observer

Set your observer location to see the next 7 days of passes ≥ 10°. The values pass through the URL so the page stays shareable.

No JS? Fill the form by hand. The geolocation button needs JavaScript.